Location: *
(33.8649°S, 62.1526°E)
Time: 18:10:51
(UTC+00:00)

Cosmos 44 Rocket - Pass Details

Date: 11 December 2021
Orbit: 648 x 741 km, 65.1° (Epoch: 23 January)

Event Time Altitude Azimuth Distance (km) Brightness Sun altitude
Rises 17:21:04 0° 284° (WNW) 2,969 6.8 -23.6°
Reaches altitude 10° 17:24:29 10° 258° (WSW) 2,072 6.3 -24.0°
Maximum altitude 17:26:51 14° 227° (SW) 1,848 6.4 -24.3°
Drops below altitude 10° 17:29:14 10° 197° (SSW) 2,096 6.7 -24.6°
Sets 17:32:46 0° 171° (S) 3,033 7.3 -25.0°
